| time (UTC) | temp C | wind direction | speed KPH | gust KPH | rain 1hr cm | rain 24hr cm | rain mn cm | humidity % | barometer mb |
| 20260508075049 | 0 | 240 | 0.0 | 0.0 | 0.00 | 0.00 | 0.00 | 97 | 1014.4 |
| 20260508074547 | 0 | 287 | 0.0 | 0.0 | 0.00 | 0.00 | 0.00 | 97 | 1014.7 |
| 20260508074043 | 0 | 277 | 0.0 | 0.0 | 0.00 | 0.00 | 0.00 | 97 | 1014.5 |
| 20260508073541 | 0 | 274 | 0.0 | 0.0 | 0.00 | 0.00 | 0.00 | 97 | 1014.3 |
| 20260508073038 | 0 | 1 | 0.0 | 0.0 | 0.00 | 0.00 | 0.00 | 97 | 1014.3 |
| 20260508072534 | 0 | 300 | 0.0 | 0.0 | 0.00 | 0.00 | 0.00 | 97 | 1014.0 |
| 20260508072031 | 0 | 308 | 0.0 | 0.0 | 0.00 | 0.00 | 0.00 | 97 | 1013.9 |
| 20260508071529 | 0 | 280 | 0.0 | 0.0 | 0.00 | 0.00 | 0.00 | 97 | 1014.2 |
| 20260508071027 | 0 | 268 | 0.0 | 0.0 | 0.00 | 0.00 | 0.00 | 96 | 1014.4 |
| 20260508070524 | 0 | 277 | 0.0 | 0.0 | 0.00 | 0.00 | 0.00 | 96 | 1014.6 |
| 20260508070022 | 0 | 277 | 0.0 | 0.0 | 0.00 | 0.00 | 0.00 | 96 | 1014.5 |
| 20260508065520 | 0 | 272 | 0.0 | 0.0 | 0.00 | 0.00 | 0.00 | 96 | 1014.4 |
| 20260508065018 | 0 | 265 | 0.0 | 0.0 | 0.00 | 0.00 | 0.00 | 95 | 1014.5 |
| 20260508064515 | 0 | 296 | 0.0 | 0.0 | 0.00 | 0.00 | 0.00 | 95 | 1014.5 |
| 20260508064013 | 0 | 309 | 0.0 | 0.0 | 0.00 | 0.00 | 0.00 | 95 | 1014.4 |
| 20260508063510 | 0 | 273 | 0.0 | 0.0 | 0.00 | 0.00 | 0.00 | 94 | 1014.5 |
| 20260508063008 | 1 | 298 | 0.0 | 0.0 | 0.00 | 0.00 | 0.00 | 94 | 1014.5 |
| 20260508062505 | 1 | 279 | 0.0 | 0.0 | 0.00 | 0.00 | 0.00 | 94 | 1014.6 |
| 20260508062001 | 1 | 284 | 0.0 | 0.0 | 0.00 | 0.00 | 0.00 | 94 | 1014.5 |
| 20260508061500 | 1 | 304 | 0.0 | 0.0 | 0.00 | 0.00 | 0.00 | 94 | 1014.4 |
| 20260508060955 | 1 | 291 | 0.0 | 0.0 | 0.00 | 0.00 | 0.00 | 95 | 1014.4 |
| 20260508060453 | 1 | 260 | 0.0 | 0.0 | 0.00 | 0.00 | 0.00 | 94 | 1014.4 |
| 20260508055949 | 1 | 276 | 0.0 | 0.0 | 0.00 | 0.08 | 0.08 | 93 | 1014.5 |
| 20260508055446 | 1 | 253 | 0.0 | 0.0 | 0.00 | 0.08 | 0.08 | 92 | 1014.2 |
| 20260508054942 | 1 | 253 | 0.0 | 0.0 | 0.00 | 0.08 | 0.08 | 90 | 1014.5 |
| 20260508054439 | 1 | 326 | 0.0 | 0.0 | 0.00 | 0.08 | 0.08 | 90 | 1014.3 |
| 20260508053936 | 1 | 323 | 0.0 | 0.0 | 0.00 | 0.08 | 0.08 | 89 | 1014.2 |
| 20260508053433 | 1 | 296 | 0.0 | 0.0 | 0.00 | 0.08 | 0.08 | 89 | 1014.4 |
| 20260508052931 | 1 | 309 | 0.0 | 0.0 | 0.00 | 0.08 | 0.08 | 88 | 1014.4 |
| 20260508052428 | 2 | 312 | 0.0 | 0.0 | 0.00 | 0.08 | 0.08 | 87 | 1014.4 |
| 20260508051924 | 2 | 286 | 0.0 | 0.0 | 0.00 | 0.08 | 0.08 | 85 | 1014.6 |
| 20260508051420 | 2 | 305 | 0.0 | 0.0 | 0.00 | 0.08 | 0.08 | 84 | 1014.4 |
| 20260508050916 | 2 | 276 | 0.0 | 0.0 | 0.00 | 0.08 | 0.08 | 84 | 1014.4 |
| 20260508050413 | 2 | 265 | 0.0 | 0.0 | 0.00 | 0.08 | 0.08 | 83 | 1014.6 |
| 20260508045909 | 2 | 265 | 0.0 | 0.0 | 0.00 | 0.08 | 0.08 | 83 | 1014.6 |
| 20260508045407 | 2 | 269 | 0.0 | 0.0 | 0.00 | 0.08 | 0.08 | 81 | 1014.5 |
| 20260508044904 | 3 | 261 | 0.0 | 0.0 | 0.00 | 0.08 | 0.08 | 82 | 1014.6 |
| 20260508044401 | 2 | 291 | 0.0 | 0.0 | 0.00 | 0.08 | 0.08 | 81 | 1014.6 |
| 20260508043856 | 3 | 268 | 0.0 | 0.0 | 0.00 | 0.08 | 0.08 | 83 | 1014.4 |
| 20260508043354 | 3 | 282 | 0.0 | 0.0 | 0.00 | 0.08 | 0.08 | 80 | 1014.5 |
| 20260508042850 | 3 | 289 | 0.0 | 0.0 | 0.00 | 0.08 | 0.08 | 80 | 1014.6 |
| 20260508042348 | 3 | 284 | 0.0 | 0.0 | 0.00 | 0.08 | 0.08 | 80 | 1014.6 |
| 20260508041844 | 3 | 279 | 0.0 | 0.0 | 0.00 | 0.08 | 0.08 | 80 | 1014.5 |
| 20260508041341 | 3 | 279 | 0.0 | 0.0 | 0.00 | 0.08 | 0.08 | 78 | 1014.5 |
| 20260508040837 | 3 | 266 | 0.0 | 0.0 | 0.00 | 0.08 | 0.08 | 77 | 1014.0 |
| 20260508040335 | 3 | 265 | 0.0 | 0.0 | 0.00 | 0.08 | 0.08 | 82 | 1014.3 |
| 20260508035832 | 3 | 278 | 0.0 | 0.0 | 0.00 | 0.08 | 0.08 | 78 | 1014.3 |
| 20260508035329 | 3 | 259 | 0.0 | 0.0 | 0.00 | 0.08 | 0.08 | 80 | 1014.2 |
| 20260508034826 | 3 | 255 | 0.0 | 0.0 | 0.00 | 0.08 | 0.08 | 78 | 1014.2 |
| 20260508034323 | 3 | 260 | 0.0 | 0.0 | 0.00 | 0.08 | 0.08 | 78 | 1014.0 |
| 20260508033820 | 3 | 252 | 0.0 | 0.0 | 0.00 | 0.08 | 0.08 | 78 | 1013.9 |
| 20260508033319 | 3 | 257 | 0.0 | 0.0 | 0.00 | 0.08 | 0.08 | 79 | 1013.8 |
| 20260508032816 | 3 | 248 | 0.0 | 0.0 | 0.00 | 0.08 | 0.08 | 80 | 1013.9 |
| 20260508032313 | 3 | 252 | 0.0 | 0.0 | 0.00 | 0.08 | 0.08 | 77 | 1013.8 |
| 20260508031809 | 3 | 252 | 0.0 | 0.0 | 0.00 | 0.08 | 0.08 | 80 | 1013.7 |
| 20260508031306 | 3 | 356 | 0.0 | 0.0 | 0.00 | 0.08 | 0.08 | 82 | 1013.9 |
| 20260508030802 | 3 | 262 | 0.0 | 0.0 | 0.00 | 0.08 | 0.08 | 82 | 1013.7 |
| 20260508030300 | 3 | 249 | 0.0 | 0.0 | 0.00 | 0.08 | 0.08 | 85 | 1013.6 |
| 20260508025756 | 3 | 253 | 0.0 | 0.0 | 0.00 | 0.08 | 0.08 | 83 | 1013.7 |
| 20260508025254 | 3 | 253 | 0.0 | 0.0 | 0.00 | 0.08 | 0.08 | 83 | 1013.6 |
| 20260508024749 | 3 | 254 | 0.0 | 0.0 | 0.00 | 0.08 | 0.08 | 85 | 1013.4 |
| 20260508024246 | 3 | 254 | 0.0 | 0.0 | 0.00 | 0.08 | 0.08 | 85 | 1013.4 |
| 20260508023743 | 3 | 229 | 0.0 | 0.0 | 0.00 | 0.08 | 0.08 | 84 | 1013.4 |
| 20260508023241 | 4 | 290 | 0.0 | 0.0 | 0.00 | 0.08 | 0.08 | 85 | 1013.4 |
| 20260508022736 | 4 | 266 | 0.0 | 0.0 | 0.00 | 0.08 | 0.08 | 83 | 1013.3 |
| 20260508022233 | 5 | 247 | 0.0 | 0.0 | 0.00 | 0.08 | 0.08 | 79 | 1013.3 |
| 20260508021730 | 4 | 247 | 0.0 | 0.0 | 0.00 | 0.08 | 0.08 | 79 | 1013.3 |
| 20260508021225 | 5 | 271 | 0.0 | 0.0 | 0.00 | 0.08 | 0.08 | 82 | 1013.1 |
| 20260508020723 | 5 | 256 | 0.0 | 0.0 | 0.00 | 0.08 | 0.08 | 77 | 1013.3 |
| 20260508020220 | 5 | 256 | 0.0 | 0.0 | 0.00 | 0.08 | 0.08 | 78 | 1013.2 |
| 20260508015717 | 5 | 256 | 0.0 | 0.0 | 0.00 | 0.08 | 0.08 | 75 | 1013.2 |
| 20260508015214 | 5 | 256 | 0.0 | 0.0 | 0.00 | 0.08 | 0.08 | 75 | 1012.9 |
| 20260508014711 | 5 | 256 | 0.0 | 0.0 | 0.00 | 0.08 | 0.08 | 78 | 1013.0 |
| 20260508014208 | 6 | 256 | 0.0 | 0.0 | 0.00 | 0.08 | 0.08 | 73 | 1013.0 |
| 20260508013703 | 6 | 256 | 0.0 | 0.0 | 0.00 | 0.08 | 0.08 | 73 | 1012.9 |
| 20260508013200 | 6 | 256 | 0.0 | 0.0 | 0.00 | 0.08 | 0.08 | 73 | 1012.8 |
| 20260508012658 | 6 | 256 | 0.0 | 0.0 | 0.00 | 0.08 | 0.08 | 71 | 1012.7 |
| 20260508012154 | 6 | 256 | 0.0 | 0.0 | 0.00 | 0.08 | 0.08 | 74 | 1012.5 |
| 20260508011653 | 6 | 256 | 0.0 | 0.0 | 0.00 | 0.08 | 0.08 | 71 | 1012.7 |
| 20260508011150 | 6 | 256 | 0.0 | 0.0 | 0.00 | 0.08 | 0.08 | 69 | 1012.5 |
| 20260508010647 | 7 | 256 | 0.0 | 0.0 | 0.00 | 0.08 | 0.08 | 69 | 1012.3 |
| 20260508010145 | 7 | 256 | 0.0 | 0.0 | 0.00 | 0.08 | 0.08 | 72 | 1012.2 |
| 20260508005641 | 8 | 303 | 0.0 | 0.0 | 0.00 | 0.08 | 0.08 | 67 | 1012.5 |
| 20260508005138 | 8 | 350 | 0.0 | 0.0 | 0.00 | 0.08 | 0.08 | 63 | 1012.4 |
| 20260508004633 | 8 | 20 | 0.0 | 0.0 | 0.00 | 0.08 | 0.08 | 63 | 1012.1 |
| 20260508004130 | 8 | 18 | 0.0 | 0.0 | 0.00 | 0.08 | 0.08 | 62 | 1012.2 |
| 20260508003627 | 9 | 64 | 0.0 | 1.6 | 0.00 | 0.08 | 0.08 | 57 | 1012.3 |
| 20260508003125 | 10 | 94 | 0.0 | 6.4 | 0.00 | 0.08 | 0.08 | 56 | 1012.2 |
| 20260508002621 | 10 | 125 | 3.2 | 4.8 | 0.00 | 0.08 | 0.08 | 55 | 1012.0 |
| 20260508002119 | 10 | 118 | 3.2 | 3.2 | 0.00 | 0.08 | 0.08 | 55 | 1011.8 |
| 20260508001614 | 10 | 183 | 1.6 | 4.8 | 0.00 | 0.08 | 0.08 | 55 | 1011.9 |
| 20260508001110 | 10 | 95 | 6.4 | 11.3 | 0.00 | 0.08 | 0.08 | 54 | 1011.9 |
| 20260508000606 | 10 | 75 | 1.6 | 3.2 | 0.00 | 0.08 | 0.08 | 54 | 1011.8 |
| 20260508000104 | 10 | 127 | 8.0 | 20.9 | 0.00 | 0.08 | 0.08 | 52 | 1011.9 |
| 20260507235600 | 10 | 114 | 6.4 | 9.7 | 0.00 | 0.08 | 0.08 | 53 | 1011.8 |
| 20260507235058 | 11 | 93 | 1.6 | 6.4 | 0.00 | 0.08 | 0.08 | 54 | 1011.8 |
| 20260507234554 | 11 | 98 | 3.2 | 11.3 | 0.00 | 0.08 | 0.08 | 54 | 1011.7 |
| 20260507234050 | 11 | 62 | 3.2 | 4.8 | 0.00 | 0.08 | 0.08 | 53 | 1011.4 |
| 20260507233547 | 11 | 100 | 1.6 | 4.8 | 0.00 | 0.08 | 0.08 | 57 | 1011.7 |
| 20260507233046 | 11 | 153 | 3.2 | 4.8 | 0.00 | 0.08 | 0.08 | 52 | 1011.8 |
| 20260507232542 | 11 | 56 | 3.2 | 6.4 | 0.00 | 0.08 | 0.08 | 52 | 1011.6 |
| 20260507232039 | 11 | 108 | 8.0 | 12.9 | 0.00 | 0.08 | 0.08 | 52 | 1011.6 |
| 20260507231536 | 11 | 102 | 3.2 | 6.4 | 0.00 | 0.08 | 0.08 | 54 | 1011.4 |
| 20260507231033 | 11 | 120 | 4.8 | 6.4 | 0.00 | 0.08 | 0.08 | 54 | 1011.5 |
| 20260507230530 | 11 | 107 | 8.0 | 11.3 | 0.00 | 0.08 | 0.08 | 50 | 1011.3 |
| 20260507230026 | 11 | 76 | 11.3 | 16.1 | 0.00 | 0.08 | 0.08 | 54 | 1011.4 |
| 20260507225521 | 11 | 82 | 4.8 | 9.7 | 0.00 | 0.08 | 0.08 | 54 | 1011.3 |
| 20260507225018 | 12 | 106 | 9.7 | 16.1 | 0.00 | 0.08 | 0.08 | 52 | 1011.3 |
| 20260507224513 | 12 | 67 | 4.8 | 11.3 | 0.00 | 0.08 | 0.08 | 54 | 1011.4 |
| 20260507224010 | 12 | 97 | 11.3 | 14.5 | 0.00 | 0.08 | 0.08 | 51 | 1011.2 |
| 20260507223506 | 12 | 91 | 9.7 | 11.3 | 0.00 | 0.08 | 0.08 | 50 | 1011.3 |
| 20260507223004 | 12 | 85 | 11.3 | 14.5 | 0.00 | 0.08 | 0.08 | 51 | 1011.2 |
| 20260507222501 | 12 | 114 | 6.4 | 12.9 | 0.00 | 0.08 | 0.08 | 52 | 1011.3 |
| 20260507221957 | 12 | 116 | 9.7 | 12.9 | 0.00 | 0.08 | 0.08 | 52 | 1011.0 |
| 20260507221453 | 12 | 98 | 11.3 | 14.5 | 0.00 | 0.08 | 0.08 | 53 | 1011.0 |
| 20260507220950 | 12 | 119 | 8.0 | 11.3 | 0.00 | 0.08 | 0.08 | 53 | 1011.3 |
| 20260507220448 | 13 | 106 | 11.3 | 16.1 | 0.00 | 0.08 | 0.08 | 50 | 1010.9 |
| 20260507215944 | 12 | 122 | 3.2 | 16.1 | 0.00 | 0.08 | 0.08 | 55 | 1010.9 |
| 20260507215441 | 12 | 100 | 9.7 | 17.7 | 0.00 | 0.08 | 0.08 | 53 | 1010.7 |
| 20260507214938 | 12 | 89 | 6.4 | 14.5 | 0.00 | 0.08 | 0.08 | 53 | 1010.8 |
| 20260507214431 | 13 | 101 | 6.4 | 9.7 | 0.00 | 0.08 | 0.08 | 52 | 1010.6 |
| 20260507213926 | 12 | 110 | 3.2 | 6.4 | 0.00 | 0.08 | 0.08 | 56 | 1010.6 |
| 20260507213422 | 12 | 96 | 16.1 | 22.5 | 0.00 | 0.08 | 0.08 | 54 | 1010.4 |
| 20260507212919 | 12 | 101 | 4.8 | 6.4 | 0.00 | 0.08 | 0.08 | 56 | 1010.3 |
| 20260507212415 | 12 | 119 | 8.0 | 12.9 | 0.00 | 0.08 | 0.08 | 54 | 1010.4 |
| 20260507211912 | 12 | 103 | 8.0 | 17.7 | 0.00 | 0.08 | 0.08 | 54 | 1010.3 |
| 20260507211408 | 13 | 135 | 8.0 | 12.9 | 0.00 | 0.08 | 0.08 | 53 | 1010.2 |
| 20260507210905 | 12 | 118 | 11.3 | 12.9 | 0.00 | 0.08 | 0.08 | 55 | 1010.2 |
| 20260507210402 | 12 | 122 | 11.3 | 17.7 | 0.00 | 0.08 | 0.08 | 54 | 1010.3 |
| 20260507205858 | 13 | 57 | 6.4 | 11.3 | 0.00 | 0.08 | 0.08 | 52 | 1010.1 |
| 20260507205355 | 13 | 121 | 14.5 | 17.7 | 0.00 | 0.08 | 0.08 | 55 | 1010.4 |
| 20260507204852 | 12 | 92 | 3.2 | 12.9 | 0.00 | 0.08 | 0.08 | 55 | 1010.3 |
| 20260507204349 | 13 | 145 | 4.8 | 11.3 | 0.00 | 0.08 | 0.08 | 53 | 1010.3 |
| 20260507203847 | 13 | 101 | 4.8 | 14.5 | 0.00 | 0.08 | 0.08 | 57 | 1010.3 |
| 20260507203344 | 13 | 97 | 6.4 | 9.7 | 0.00 | 0.08 | 0.08 | 56 | 1010.3 |
| 20260507202840 | 13 | 153 | 4.8 | 11.3 | 0.00 | 0.08 | 0.08 | 54 | 1010.2 |
| 20260507202337 | 13 | 16 | 4.8 | 11.3 | 0.00 | 0.08 | 0.08 | 54 | 1010.4 |
| 20260507201832 | 13 | 105 | 6.4 | 25.7 | 0.00 | 0.08 | 0.08 | 56 | 1010.3 |
| 20260507201328 | 12 | 119 | 4.8 | 17.7 | 0.00 | 0.08 | 0.08 | 58 | 1010.6 |
| 20260507200825 | 13 | 128 | 12.9 | 17.7 | 0.00 | 0.08 | 0.08 | 57 | 1010.4 |
| 20260507200321 | 12 | 94 | 9.7 | 12.9 | 0.00 | 0.08 | 0.08 | 61 | 1010.4 |
| 20260507195817 | 12 | 137 | 8.0 | 14.5 | 0.00 | 0.08 | 0.08 | 61 | 1010.7 |
| 20260507195314 | 11 | 126 | 4.8 | 12.9 | 0.00 | 0.08 | 0.08 | 62 | 1010.7 |
| 20260507194812 | 11 | 155 | 8.0 | 11.3 | 0.00 | 0.08 | 0.08 | 63 | 1010.8 |
| 20260507194308 | 12 | 111 | 8.0 | 14.5 | 0.00 | 0.08 | 0.08 | 62 | 1010.5 |
| 20260507193804 | 11 | 104 | 3.2 | 11.3 | 0.00 | 0.08 | 0.08 | 63 | 1010.7 |
| 20260507193301 | 12 | 110 | 6.4 | 11.3 | 0.00 | 0.08 | 0.08 | 61 | 1010.9 |
| 20260507192757 | 13 | 98 | 3.2 | 11.3 | 0.00 | 0.08 | 0.08 | 60 | 1010.8 |
| 20260507192254 | 13 | 9 | 8.0 | 12.9 | 0.00 | 0.08 | 0.08 | 55 | 1010.8 |
| 20260507191750 | 13 | 103 | 9.7 | 14.5 | 0.00 | 0.08 | 0.08 | 58 | 1011.2 |
| 20260507191247 | 12 | 358 | 4.8 | 12.9 | 0.00 | 0.08 | 0.08 | 64 | 1010.8 |
| 20260507190744 | 12 | 104 | 9.7 | 14.5 | 0.00 | 0.08 | 0.08 | 59 | 1011.0 |
| 20260507190242 | 11 | 120 | 8.0 | 20.9 | 0.00 | 0.08 | 0.08 | 64 | 1010.7 |
| 20260507185741 | 11 | 94 | 4.8 | 6.4 | 0.00 | 0.08 | 0.08 | 62 | 1010.8 |
| 20260507185237 | 11 | 93 | 1.6 | 3.2 | 0.00 | 0.08 | 0.08 | 62 | 1011.0 |
| 20260507184735 | 11 | 92 | 4.8 | 11.3 | 0.00 | 0.08 | 0.08 | 61 | 1011.0 |
| 20260507184233 | 12 | 104 | 4.8 | 11.3 | 0.00 | 0.08 | 0.08 | 62 | 1010.8 |
| 20260507183729 | 12 | 19 | 14.5 | 16.1 | 0.00 | 0.08 | 0.08 | 59 | 1010.9 |
| 20260507183226 | 11 | 66 | 3.2 | 12.9 | 0.00 | 0.08 | 0.08 | 60 | 1011.0 |
| 20260507182723 | 11 | 131 | 3.2 | 4.8 | 0.00 | 0.08 | 0.08 | 66 | 1011.2 |
| 20260507182218 | 11 | 109 | 14.5 | 17.7 | 0.00 | 0.08 | 0.08 | 63 | 1011.3 |
| 20260507181715 | 12 | 130 | 6.4 | 14.5 | 0.00 | 0.08 | 0.08 | 61 | 1011.0 |
| 20260507181212 | 11 | 128 | 9.7 | 17.7 | 0.00 | 0.08 | 0.08 | 63 | 1011.0 |
| 20260507180709 | 10 | 107 | 6.4 | 12.9 | 0.00 | 0.08 | 0.08 | 63 | 1011.3 |
| 20260507180205 | 10 | 104 | 12.9 | 12.9 | 0.00 | 0.08 | 0.08 | 63 | 1011.3 |
| 20260507175700 | 11 | 116 | 9.7 | 12.9 | 0.00 | 0.08 | 0.08 | 62 | 1011.2 |
| 20260507175153 | 11 | 310 | 0.0 | 0.0 | 0.00 | 0.08 | 0.08 | 62 | 1011.3 |
| 20260507174650 | 11 | 75 | 6.4 | 11.3 | 0.00 | 0.08 | 0.08 | 64 | 1011.3 |
| 20260507174148 | 12 | 142 | 0.0 | 4.8 | 0.00 | 0.08 | 0.08 | 63 | 1011.0 |
| 20260507173645 | 11 | 83 | 4.8 | 9.7 | 0.00 | 0.08 | 0.08 | 62 | 1011.2 |
| 20260507173142 | 11 | 111 | 11.3 | 14.5 | 0.00 | 0.08 | 0.08 | 61 | 1011.5 |
| 20260507172638 | 11 | 112 | 1.6 | 9.7 | 0.00 | 0.08 | 0.08 | 59 | 1011.4 |
| 20260507172135 | 11 | 118 | 14.5 | 17.7 | 0.00 | 0.08 | 0.08 | 60 | 1011.5 |
| 20260507171635 | 11 | 53 | 6.4 | 17.7 | 0.00 | 0.08 | 0.08 | 65 | 1011.5 |
| 20260507171133 | 11 | 28 | 4.8 | 6.4 | 0.00 | 0.08 | 0.08 | 66 | 1011.7 |
| 20260507170630 | 10 | 130 | 12.9 | 16.1 | 0.00 | 0.08 | 0.08 | 63 | 1011.8 |
| 20260507170127 | 10 | 106 | 9.7 | 11.3 | 0.00 | 0.08 | 0.08 | 65 | 1011.8 |
| 20260507165622 | 10 | 124 | 6.4 | 16.1 | 0.00 | 0.08 | 0.08 | 65 | 1012.0 |
| 20260507165119 | 10 | 156 | 6.4 | 11.3 | 0.00 | 0.08 | 0.08 | 67 | 1011.9 |
| 20260507164614 | 10 | 110 | 8.0 | 17.7 | 0.00 | 0.08 | 0.08 | 63 | 1011.9 |
| 20260507164111 | 10 | 86 | 4.8 | 9.7 | 0.00 | 0.08 | 0.08 | 66 | 1011.9 |
| 20260507163609 | 10 | 86 | 4.8 | 9.7 | 0.00 | 0.08 | 0.08 | 66 | 1011.9 |
| 20260507163108 | 11 | 126 | 9.7 | 14.5 | 0.00 | 0.08 | 0.08 | 63 | 1011.9 |
| 20260507162607 | 10 | 118 | 6.4 | 11.3 | 0.00 | 0.08 | 0.08 | 64 | 1011.9 |
| 20260507162104 | 10 | 125 | 6.4 | 20.9 | 0.00 | 0.08 | 0.08 | 62 | 1012.0 |
| 20260507161600 | 11 | 141 | 3.2 | 6.4 | 0.00 | 0.08 | 0.08 | 67 | 1011.9 |
| 20260507161057 | 11 | 135 | 6.4 | 6.4 | 0.00 | 0.08 | 0.08 | 67 | 1011.9 |
| 20260507160554 | 10 | 109 | 3.2 | 9.7 | 0.00 | 0.08 | 0.08 | 66 | 1011.8 |
| 20260507160050 | 11 | 113 | 6.4 | 12.9 | 0.00 | 0.08 | 0.08 | 66 | 1012.0 |
| 20260507155545 | 10 | 114 | 4.8 | 12.9 | 0.00 | 0.08 | 0.08 | 68 | 1012.1 |
| 20260507155043 | 10 | 101 | 3.2 | 6.4 | 0.00 | 0.08 | 0.08 | 67 | 1011.9 |
| 20260507154539 | 10 | 117 | 9.7 | 12.9 | 0.00 | 0.08 | 0.08 | 65 | 1012.1 |
| 20260507154037 | 11 | 98 | 8.0 | 12.9 | 0.00 | 0.08 | 0.08 | 64 | 1012.1 |
| 20260507153533 | 10 | 94 | 3.2 | 6.4 | 0.00 | 0.08 | 0.08 | 67 | 1012.2 |
| 20260507153030 | 10 | 105 | 3.2 | 6.4 | 0.00 | 0.08 | 0.08 | 68 | 1012.1 |
| 20260507152525 | 10 | 96 | 6.4 | 9.7 | 0.00 | 0.08 | 0.08 | 66 | 1012.0 |
| 20260507152022 | 10 | 84 | 3.2 | 12.9 | 0.00 | 0.08 | 0.08 | 67 | 1012.1 |
| 20260507151518 | 10 | 231 | 4.8 | 14.5 | 0.00 | 0.08 | 0.08 | 68 | 1012.2 |
| 20260507151015 | 10 | 147 | 3.2 | 6.4 | 0.00 | 0.08 | 0.08 | 69 | 1012.3 |
| 20260507150512 | 10 | 100 | 4.8 | 9.7 | 0.00 | 0.08 | 0.08 | 69 | 1012.2 |
| 20260507150009 | 9 | 175 | 4.8 | 9.7 | 0.00 | 0.08 | 0.08 | 72 | 1012.4 |
| 20260507145504 | 10 | 171 | 3.2 | 9.7 | 0.00 | 0.08 | 0.08 | 68 | 1012.2 |
| 20260507145001 | 8 | 142 | 3.2 | 4.8 | 0.00 | 0.08 | 0.08 | 74 | 1012.3 |
| 20260507144458 | 8 | 92 | 6.4 | 11.3 | 0.00 | 0.08 | 0.08 | 68 | 1012.5 |
| 20260507143955 | 8 | 106 | 3.2 | 9.7 | 0.00 | 0.08 | 0.08 | 70 | 1012.7 |
| 20260507143453 | 8 | 111 | 6.4 | 11.3 | 0.00 | 0.08 | 0.08 | 73 | 1012.4 |
| 20260507142949 | 8 | 111 | 8.0 | 12.9 | 0.00 | 0.08 | 0.08 | 74 | 1012.7 |
| 20260507142445 | 8 | 116 | 1.6 | 9.7 | 0.00 | 0.08 | 0.08 | 76 | 1012.5 |
| 20260507141943 | 8 | 120 | 4.8 | 4.8 | 0.00 | 0.08 | 0.08 | 82 | 1012.5 |
| 20260507141438 | 8 | 97 | 1.6 | 3.2 | 0.00 | 0.08 | 0.08 | 81 | 1012.9 |
| 20260507140935 | 7 | 113 | 1.6 | 4.8 | 0.00 | 0.08 | 0.08 | 84 | 1012.8 |
| 20260507140432 | 7 | 88 | 3.2 | 4.8 | 0.00 | 0.08 | 0.08 | 84 | 1012.9 |
| 20260507135930 | 7 | 236 | 3.2 | 4.8 | 0.00 | 0.08 | 0.08 | 87 | 1013.1 |
| 20260507135426 | 7 | 162 | 0.0 | 4.8 | 0.00 | 0.08 | 0.08 | 86 | 1013.1 |
| 20260507134924 | 7 | 129 | 3.2 | 3.2 | 0.00 | 0.08 | 0.08 | 89 | 1013.2 |
| 20260507134420 | 7 | 126 | 1.6 | 3.2 | 0.00 | 0.08 | 0.08 | 90 | 1013.0 |
| 20260507133916 | 7 | 140 | 0.0 | 4.8 | 0.00 | 0.08 | 0.08 | 91 | 1013.1 |
| 20260507133412 | 7 | 117 | 1.6 | 4.8 | 0.00 | 0.08 | 0.08 | 91 | 1013.2 |
| 20260507132911 | 7 | 146 | 1.6 | 4.8 | 0.00 | 0.08 | 0.08 | 91 | 1012.9 |
| 20260507132407 | 7 | 187 | 0.0 | 3.2 | 0.00 | 0.08 | 0.08 | 94 | 1013.0 |
| 20260507131905 | 7 | 116 | 1.6 | 3.2 | 0.00 | 0.08 | 0.08 | 93 | 1013.0 |
| 20260507131400 | 7 | 115 | 3.2 | 3.2 | 0.00 | 0.08 | 0.08 | 95 | 1013.1 |
| 20260507130857 | 7 | 101 | 1.6 | 1.6 | 0.00 | 0.08 | 0.08 | 94 | 1012.9 |
| 20260507130354 | 7 | 121 | 0.0 | 3.2 | 0.00 | 0.08 | 0.08 | 97 | 1013.1 |
| 20260507125853 | 6 | 195 | 0.0 | 0.0 | 0.00 | 0.08 | 0.08 | 98 | 1013.2 |
| 20260507125350 | 6 | 173 | 0.0 | 1.6 | 0.00 | 0.08 | 0.08 | 98 | 1013.1 |
| 20260507124848 | 6 | 181 | 0.0 | 0.0 | 0.00 | 0.08 | 0.08 | 99 | 1013.2 |
| 20260507124343 | 6 | 145 | 3.2 | 4.8 | 0.00 | 0.08 | 0.08 | 99 | 1013.1 |
| 20260507123843 | 6 | 136 | 0.0 | 0.0 | 0.00 | 0.08 | 0.08 | 99 | 1013.1 |
| 20260507123339 | 6 | 134 | 0.0 | 4.8 | 0.00 | 0.08 | 0.08 | 99 | 1013.1 |
| 20260507122835 | 6 | 155 | 0.0 | 1.6 | 0.00 | 0.08 | 0.08 | 99 | 1013.1 |
| 20260507122331 | 6 | 126 | 3.2 | 4.8 | 0.00 | 0.08 | 0.08 | 99 | 1013.3 |
| 20260507121827 | 6 | 124 | 1.6 | 3.2 | 0.00 | 0.08 | 0.08 | 99 | 1013.3 |
| 20260507121323 | 6 | 134 | 1.6 | 4.8 | 0.00 | 0.08 | 0.08 | 99 | 1013.0 |
| 20260507120820 | 6 | 112 | 3.2 | 4.8 | 0.00 | 0.08 | 0.08 | 99 | 1013.2 |
| 20260507120316 | 6 | 106 | 0.0 | 0.0 | 0.00 | 0.08 | 0.08 | 99 | 1013.1 |
| 20260507115812 | 6 | 155 | 0.0 | 0.0 | 0.00 | 0.08 | 0.08 | 99 | 1013.0 |
| 20260507115308 | 6 | 111 | 0.0 | 1.6 | 0.00 | 0.08 | 0.08 | 99 | 1013.0 |
| 20260507114804 | 6 | 167 | 0.0 | 0.0 | 0.00 | 0.08 | 0.08 | 99 | 1013.3 |
| 20260507114301 | 6 | 180 | 0.0 | 0.0 | 0.00 | 0.08 | 0.08 | 99 | 1013.0 |
| 20260507113759 | 6 | 179 | 0.0 | 0.0 | 0.00 | 0.08 | 0.08 | 99 | 1012.9 |
| 20260507113255 | 6 | 179 | 0.0 | 0.0 | 0.00 | 0.08 | 0.08 | 99 | 1013.0 |
| 20260507112753 | 6 | 182 | 0.0 | 0.0 | 0.00 | 0.08 | 0.08 | 99 | 1012.7 |
| 20260507112250 | 6 | 189 | 0.0 | 0.0 | 0.00 | 0.08 | 0.08 | 99 | 1012.8 |
| 20260507111748 | 6 | 181 | 0.0 | 0.0 | 0.00 | 0.08 | 0.08 | 99 | 1012.7 |
| 20260507111244 | 6 | 181 | 0.0 | 0.0 | 0.00 | 0.08 | 0.08 | 99 | 1012.5 |
| 20260507110740 | 6 | 181 | 0.0 | 0.0 | 0.00 | 0.08 | 0.08 | 99 | 1012.4 |
| 20260507110237 | 6 | 184 | 0.0 | 0.0 | 0.00 | 0.08 | 0.08 | 99 | 1012.4 |
| 20260507105734 | 6 | 184 | 0.0 | 0.0 | 0.00 | 0.08 | 0.08 | 99 | 1012.3 |
| 20260507105230 | 6 | 189 | 0.0 | 0.0 | 0.00 | 0.08 | 0.08 | 99 | 1012.2 |
| 20260507104727 | 6 | 190 | 0.0 | 0.0 | 0.00 | 0.08 | 0.08 | 99 | 1012.1 |
| 20260507104224 | 6 | 206 | 0.0 | 0.0 | 0.00 | 0.08 | 0.08 | 99 | 1012.0 |
| 20260507103720 | 6 | 181 | 0.0 | 0.0 | 0.00 | 0.08 | 0.08 | 99 | 1012.3 |
| 20260507103216 | 6 | 177 | 0.0 | 1.6 | 0.00 | 0.08 | 0.08 | 99 | 1012.2 |
| 20260507102713 | 6 | 192 | 0.0 | 0.0 | 0.00 | 0.08 | 0.08 | 99 | 1012.0 |
| 20260507102209 | 6 | 192 | 0.0 | 0.0 | 0.00 | 0.08 | 0.08 | 99 | 1012.0 |
| 20260507101705 | 6 | 142 | 0.0 | 0.0 | 0.00 | 0.08 | 0.08 | 99 | 1012.2 |
| 20260507101201 | 6 | 141 | 0.0 | 0.0 | 0.00 | 0.08 | 0.08 | 99 | 1012.2 |
| 20260507100658 | 6 | 147 | 0.0 | 0.0 | 0.00 | 0.08 | 0.08 | 99 | 1012.4 |
| 20260507100157 | 6 | 154 | 0.0 | 0.0 | 0.00 | 0.08 | 0.08 | 99 | 1012.2 |
| 20260507095654 | 6 | 154 | 0.0 | 0.0 | 0.00 | 0.08 | 0.08 | 99 | 1012.1 |
| 20260507095151 | 6 | 154 | 0.0 | 0.0 | 0.00 | 0.08 | 0.08 | 99 | 1012.2 |
| 20260507094647 | 6 | 147 | 0.0 | 0.0 | 0.00 | 0.08 | 0.08 | 99 | 1012.1 |
| 20260507094144 | 6 | 135 | 0.0 | 0.0 | 0.00 | 0.08 | 0.08 | 99 | 1012.2 |
| 20260507093641 | 6 | 179 | 0.0 | 0.0 | 0.00 | 0.08 | 0.08 | 99 | 1012.3 |
| 20260507093141 | 6 | 227 | 0.0 | 1.6 | 0.00 | 0.08 | 0.08 | 99 | 1012.3 |
| 20260507092636 | 6 | 219 | 0.0 | 0.0 | 0.00 | 0.08 | 0.08 | 99 | 1012.3 |
| 20260507092133 | 6 | 191 | 0.0 | 0.0 | 0.00 | 0.08 | 0.08 | 99 | 1012.0 |
| 20260507091629 | 6 | 194 | 0.0 | 0.0 | 0.00 | 0.08 | 0.08 | 99 | 1011.9 |
| 20260507091125 | 6 | 148 | 0.0 | 0.0 | 0.00 | 0.08 | 0.08 | 99 | 1012.0 |
| 20260507090621 | 6 | 149 | 1.6 | 3.2 | 0.00 | 0.08 | 0.08 | 99 | 1012.2 |
| 20260507090119 | 6 | 149 | 0.0 | 1.6 | 0.00 | 0.08 | 0.08 | 99 | 1012.0 |
| 20260507085616 | 6 | 126 | 1.6 | 4.8 | 0.00 | 0.08 | 0.08 | 99 | 1011.9 |
| 20260507085112 | 6 | 120 | 6.4 | 6.4 | 0.00 | 0.08 | 0.08 | 99 | 1012.0 |
| 20260507084609 | 6 | 121 | 3.2 | 9.7 | 0.00 | 0.08 | 0.08 | 99 | 1012.0 |
| 20260507084106 | 6 | 135 | 3.2 | 6.4 | 0.00 | 0.08 | 0.08 | 99 | 1012.2 |
| 20260507083602 | 6 | 122 | 6.4 | 11.3 | 0.00 | 0.08 | 0.08 | 99 | 1012.2 |
| 20260507083100 | 6 | 140 | 6.4 | 9.7 | 0.00 | 0.08 | 0.08 | 99 | 1012.2 |
| 20260507082555 | 6 | 129 | 4.8 | 12.9 | 0.00 | 0.08 | 0.08 | 99 | 1012.2 |
| 20260507082052 | 7 | 144 | 4.8 | 4.8 | 0.00 | 0.08 | 0.08 | 99 | 1012.1 |
| 20260507081548 | 7 | 122 | 3.2 | 4.8 | 0.00 | 0.08 | 0.08 | 99 | 1012.2 |
| 20260507081045 | 7 | 116 | 3.2 | 6.4 | 0.00 | 0.08 | 0.08 | 99 | 1011.9 |
| 20260507080541 | 7 | 124 | 6.4 | 11.3 | 0.00 | 0.08 | 0.08 | 99 | 1011.9 |
| 20260507080038 | 7 | 146 | 4.8 | 11.3 | 0.00 | 0.08 | 0.08 | 99 | 1011.8 |
| 20260507075533 | 7 | 111 | 9.7 | 11.3 | 0.00 | 0.08 | 0.08 | 99 | 1011.8 |